Regional Weather Roundup
Issued by NWS Cleveland, OH

Home | Current Version | Previous Version | Text Only | Print | Product List | Glossary Off
Versions: 1 2 3 4 5 6 7 8 9 10 11 12 13 14 15 16 17 18 19 20 21 22 23 24 25 26 27 28 29 30 31 32 33 34 35 36 37 38 39 40 41 42 43 44 45 46 47 48 49 50

000
ASUS41 KCLE 030110
RWRCLE
OHIO REGIONAL WEATHER ROUNDUP
NATIONAL WEATHER SERVICE CLEVELAND, OH
900 PM EDT TUE JUN 02 2015

NOTE: "FAIR" INDICATES FEW OR NO CLOUDS BELOW 12,000 FEET WITH NO
SIGNIFICANT WEATHER AND/OR OBSTRUCTIONS TO VISIBILITY.

OHZ001>008-015>018-024>027-034-035-043-044-030200-
   NORTHWEST OHIO

CITY           SKY/WX    TMP DP  RH WIND       PRES   REMARKS
DEFIANCE       CLEAR     62  45  53 E8        30.13R
FINDLAY        CLEAR     61  46  57 NE12      30.11R
TOLEDO EXPRESS CLEAR     59  40  49 NE6       30.13S
TOLEDO EXEC    CLEAR     60  46  59 NE7       30.14S
LIMA           PTCLDY    62  52  69 NE7       30.11R
$$

OHZ009>014-019>023-028>033-038-089-030200-
   NORTHEAST OHIO

CITY           SKY/WX    TMP DP  RH WIND       PRES   REMARKS
CLE-HOPKINS    PTCLDY    58  51  78 NE6       30.13R
CLE-LAKEFRONT  PTCLDY    60  54  80 NE9       30.11R
CUY CO. ARPT   PTCLDY    59 N/A N/A NE9       30.13R
LORAIN-ELYRIA  CLEAR     58  50  75 NE7       30.12R
ASHTABULA      CLEAR     58  47  66 NE3       30.14S
AKRON-CANTON   PTCLDY    62  52  69 SE6       30.11S
WOOSTER        CLEAR     60  54  80 S3        30.12R
MANSFIELD      MOCLDY    62  54  74 E9        30.12R
YOUNGSTOWN     MOCLDY    62  52  69 NE8       30.12R
$$

OHZ042-051>053-060>062-070>072-077>081-030200-
  SOUTHWEST OHIO

CITY           SKY/WX    TMP DP  RH WIND       PRES   REMARKS
CINC-COVINGTON CLOUDY    61  52  72 NE7       30.10R
CINC-LUNKEN    CLOUDY    61  53  75 CALM      30.10S
HAMILTON       CLOUDY    61  55  81 CALM      30.10F
DAYTON         PTCLDY    62  53  72 CALM      30.10S
WRIGHT-PAT AFB NOT AVBL
DAYTON GENERAL CLOUDY    61  53  75 CALM      30.09S
WILMINGTON     CLOUDY    60  52  74 SE5       30.09R
$$

OHZ036-037-039>041-045>050-054>059-063>069-073>076-082>088-030200-
  CENTRAL AND SOUTHEAST OHIO

CITY           SKY/WX    TMP DP  RH WIND       PRES   REMARKS
COLUMBUS       PTCLDY    59  52  77 E9        30.10R
OSU AIRPORT    CLEAR     60  52  74 E7        30.10R
BOLTON FIELD   NOT AVBL
RICKENBACK AFB PTCLDY    59  52  77 E6        30.10S
NEWARK         CLOUDY    61  52  72 E7        30.11R
MARION         MOCLDY    62  53  72 NE8       30.11R
LANCASTER      CLOUDY    60  53  77 NE7       30.12R
ZANESVILLE     NOT AVBL
NEW PHILLY     CLOUDY    64  54  69 E3        30.12R
$$



USA.gov is the U.S. government's official web portal to all federal, state and local government web resources and services.